Time,TemperatureF,DewpointF,PressureIn,WindDirection,WindDirectionDegrees,WindSpeedMPH,WindSpeedGustMPH,Humidity,HourlyPrecipIn,Conditions,Clouds,dailyrainin,SoftwareType,DateUTC
2015-08-01 00:21:00,75.0,-99.9,-100.00,SSE,157,2.0,12.0,0,-99.99,,,-99.99,,2015-08-01 06:21:00,
2015-08-01 00:44:00,75.0,-99.9,-100.00,SSE,157,2.0,12.0,0,-99.99,,,-99.99,,2015-08-01 06:44:00,
2015-08-01 00:54:00,75.0,-99.9,-100.00,SSE,157,2.0,12.0,0,-99.99,,,-99.99,,2015-08-01 06:54:00,
2015-08-01 01:03:00,75.0,-99.9,-100.00,SSE,157,2.0,12.0,0,-99.99,,,-99.99,,2015-08-01 07:03:00,
2015-08-01 01:13:00,75.0,-99.9,-100.00,SSE,157,2.0,12.0,0,-99.99,,,-99.99,,2015-08-01 07:13:00,
2015-08-01 01:21:00,74.0,-99.9,-100.00,SSE,147,9.0,11.0,0,-99.99,,,-99.99,,2015-08-01 07:21:00,
2015-08-01 01:44:00,74.0,-99.9,-100.00,SSE,147,9.0,11.0,0,-99.99,,,-99.99,,2015-08-01 07:44:00,
2015-08-01 01:53:00,74.0,-99.9,-100.00,SSE,147,9.0,11.0,0,-99.99,,,-99.99,,2015-08-01 07:53:00,
2015-08-01 02:04:00,74.0,-99.9,-100.00,SSE,147,9.0,11.0,0,-99.99,,,-99.99,,2015-08-01 08:04:00,
2015-08-01 02:13:00,74.0,-99.9,-100.00,SSE,147,9.0,11.0,0,-99.99,,,-99.99,,2015-08-01 08:13:00,
2015-08-01 02:21:00,74.0,-99.9,-100.00,SSE,149,9.0,11.0,0,-99.99,,,-99.99,,2015-08-01 08:21:00,
2015-08-01 02:43:00,74.0,-99.9,-100.00,SSE,149,9.0,11.0,0,-99.99,,,-99.99,,2015-08-01 08:43:00,
2015-08-01 02:54:00,74.0,-99.9,-100.00,SSE,149,9.0,11.0,0,-99.99,,,-99.99,,2015-08-01 08:54:00,
2015-08-01 03:04:00,74.0,-99.9,-100.00,SSE,149,9.0,11.0,0,-99.99,,,-99.99,,2015-08-01 09:04:00,
2015-08-01 03:13:00,74.0,-99.9,-100.00,SSE,149,9.0,11.0,0,-99.99,,,-99.99,,2015-08-01 09:13:00,
2015-08-01 03:44:00,73.0,-99.9,-100.00,SSW,197,4.0,9.0,0,-99.99,,,-99.99,,2015-08-01 09:44:00,
2015-08-01 03:56:00,73.0,-99.9,-100.00,SSW,197,4.0,9.0,0,-99.99,,,-99.99,,2015-08-01 09:56:00,
2015-08-01 04:03:00,73.0,-99.9,-100.00,SSW,197,4.0,9.0,0,-99.99,,,-99.99,,2015-08-01 10:03:00,
2015-08-01 04:13:00,73.0,-99.9,-100.00,SSW,197,4.0,9.0,0,-99.99,,,-99.99,,2015-08-01 10:13:00,
2015-08-01 04:21:00,71.0,-99.9,-100.00,SSW,202,6.0,8.0,0,-99.99,,,-99.99,,2015-08-01 10:21:00,
2015-08-01 04:44:00,71.0,-99.9,-100.00,SSW,202,6.0,8.0,0,-99.99,,,-99.99,,2015-08-01 10:44:00,
2015-08-01 04:54:00,71.0,-99.9,-100.00,SSW,202,6.0,8.0,0,-99.99,,,-99.99,,2015-08-01 10:54:00,
2015-08-01 05:04:00,71.0,-99.9,-100.00,SSW,202,6.0,8.0,0,-99.99,,,-99.99,,2015-08-01 11:04:00,
2015-08-01 05:21:00,69.0,-99.9,-100.00,WSW,251,6.0,-999.0,0,-99.99,,,-99.99,,2015-08-01 11:21:00,
2015-08-01 05:44:00,69.0,-99.9,-100.00,WSW,251,6.0,9.0,0,-99.99,,,-99.99,,2015-08-01 11:44:00,
2015-08-01 05:54:00,69.0,-99.9,-100.00,WSW,251,6.0,9.0,0,-99.99,,,-99.99,,2015-08-01 11:54:00,
2015-08-01 06:04:00,69.0,-99.9,-100.00,WSW,251,6.0,9.0,0,-99.99,,,-99.99,,2015-08-01 12:04:00,
2015-08-01 06:13:00,69.0,-99.9,-100.00,WSW,251,6.0,9.0,0,-99.99,,,-99.99,,2015-08-01 12:13:00,
2015-08-01 06:21:00,68.0,-99.9,-100.00,WSW,257,8.0,11.0,0,-99.99,,,-99.99,,2015-08-01 12:21:00,
2015-08-01 06:44:00,68.0,-99.9,-100.00,WSW,257,8.0,11.0,0,-99.99,,,-99.99,,2015-08-01 12:44:00,
2015-08-01 06:54:00,68.0,-99.9,-100.00,WSW,257,8.0,11.0,0,-99.99,,,-99.99,,2015-08-01 12:54:00,
2015-08-01 07:04:00,68.0,-99.9,-100.00,WSW,257,8.0,11.0,0,-99.99,,,-99.99,,2015-08-01 13:04:00,
2015-08-01 07:13:00,68.0,-99.9,-100.00,WSW,257,8.0,11.0,0,-99.99,,,-99.99,,2015-08-01 13:13:00,
2015-08-01 07:21:00,67.0,-99.9,-100.00,WSW,255,12.0,17.0,0,-99.99,,,-99.99,,2015-08-01 13:21:00,
2015-08-01 07:44:00,67.0,-99.9,-100.00,WSW,255,12.0,17.0,0,-99.99,,,-99.99,,2015-08-01 13:44:00,
2015-08-01 07:53:00,67.0,-99.9,-100.00,WSW,255,12.0,17.0,0,-99.99,,,-99.99,,2015-08-01 13:53:00,
2015-08-01 08:03:00,67.0,-99.9,-100.00,WSW,255,12.0,17.0,0,-99.99,,,-99.99,,2015-08-01 14:03:00,
2015-08-01 08:13:00,67.0,-99.9,-100.00,WSW,255,12.0,17.0,0,-99.99,,,-99.99,,2015-08-01 14:13:00,
2015-08-01 08:21:00,69.0,-99.9,-100.00,WSW,255,10.0,16.0,0,-99.99,,,-99.99,,2015-08-01 14:21:00,
2015-08-01 08:44:00,69.0,-99.9,-100.00,WSW,255,10.0,16.0,0,-99.99,,,-99.99,,2015-08-01 14:44:00,
2015-08-01 08:53:00,69.0,-99.9,-100.00,WSW,255,10.0,16.0,0,-99.99,,,-99.99,,2015-08-01 14:53:00,
2015-08-01 09:03:00,69.0,-99.9,-100.00,WSW,255,10.0,16.0,0,-99.99,,,-99.99,,2015-08-01 15:03:00,
2015-08-01 09:13:00,69.0,-99.9,-100.00,WSW,255,10.0,16.0,0,-99.99,,,-99.99,,2015-08-01 15:13:00,
2015-08-01 09:21:00,72.0,-99.9,-100.00,West,268,9.0,15.0,0,-99.99,,,-99.99,,2015-08-01 15:21:00,
2015-08-01 09:44:00,72.0,-99.9,-100.00,West,268,9.0,15.0,0,-99.99,,,-99.99,,2015-08-01 15:44:00,
2015-08-01 09:54:00,72.0,-99.9,-100.00,West,268,9.0,15.0,0,-99.99,,,-99.99,,2015-08-01 15:54:00,
2015-08-01 10:03:00,72.0,-99.9,-100.00,West,268,9.0,15.0,0,-99.99,,,-99.99,,2015-08-01 16:03:00,
2015-08-01 10:13:00,72.0,-99.9,-100.00,West,268,9.0,15.0,0,-99.99,,,-99.99,,2015-08-01 16:13:00,
2015-08-01 10:21:00,79.0,-99.9,-100.00,WSW,242,9.0,14.0,0,-99.99,,,-99.99,,2015-08-01 16:21:00,
2015-08-01 10:44:00,79.0,-99.9,-100.00,WSW,242,9.0,14.0,0,-99.99,,,-99.99,,2015-08-01 16:44:00,
2015-08-01 10:55:00,79.0,-99.9,-100.00,WSW,242,9.0,14.0,0,-99.99,,,-99.99,,2015-08-01 16:55:00,
2015-08-01 11:03:00,79.0,-99.9,-100.00,WSW,242,9.0,14.0,0,-99.99,,,-99.99,,2015-08-01 17:03:00,
2015-08-01 11:13:00,79.0,-99.9,-100.00,WSW,242,9.0,14.0,0,-99.99,,,-99.99,,2015-08-01 17:13:00,
2015-08-01 11:21:00,85.0,-99.9,-100.00,WSW,251,9.0,15.0,0,-99.99,,,-99.99,,2015-08-01 17:21:00,
2015-08-01 11:44:00,85.0,-99.9,-100.00,WSW,251,9.0,15.0,0,-99.99,,,-99.99,,2015-08-01 17:44:00,
2015-08-01 11:54:00,85.0,-99.9,-100.00,WSW,251,9.0,15.0,0,-99.99,,,-99.99,,2015-08-01 17:54:00,
2015-08-01 12:04:00,85.0,-99.9,-100.00,WSW,251,9.0,15.0,0,-99.99,,,-99.99,,2015-08-01 18:04:00,
2015-08-01 12:13:00,85.0,-99.9,-100.00,WSW,251,9.0,15.0,0,-99.99,,,-99.99,,2015-08-01 18:13:00,
2015-08-01 12:21:00,90.0,-99.9,-100.00,WSW,255,9.0,17.0,0,-99.99,,,-99.99,,2015-08-01 18:21:00,
2015-08-01 12:44:00,90.0,-99.9,-100.00,WSW,255,9.0,17.0,0,-99.99,,,-99.99,,2015-08-01 18:44:00,
2015-08-01 12:54:00,90.0,-99.9,-100.00,WSW,255,9.0,17.0,0,-99.99,,,-99.99,,2015-08-01 18:54:00,
2015-08-01 13:04:00,90.0,-99.9,-100.00,WSW,255,9.0,17.0,0,-99.99,,,-99.99,,2015-08-01 19:04:00,
2015-08-01 13:13:00,90.0,-99.9,-100.00,WSW,255,9.0,17.0,0,-99.99,,,-99.99,,2015-08-01 19:13:00,
2015-08-01 13:21:00,92.0,-99.9,-100.00,SW,236,10.0,20.0,0,-99.99,,,-99.99,,2015-08-01 19:21:00,
2015-08-01 13:44:00,92.0,-99.9,-100.00,SW,236,10.0,20.0,0,-99.99,,,-99.99,,2015-08-01 19:44:00,
2015-08-01 13:54:00,92.0,-99.9,-100.00,SW,236,10.0,20.0,0,-99.99,,,-99.99,,2015-08-01 19:54:00,
2015-08-01 14:05:00,92.0,-99.9,-100.00,SW,236,10.0,20.0,0,-99.99,,,-99.99,,2015-08-01 20:05:00,
2015-08-01 14:13:00,92.0,-99.9,-100.00,SW,236,10.0,20.0,0,-99.99,,,-99.99,,2015-08-01 20:13:00,
2015-08-01 14:21:00,94.0,-99.9,-100.00,West,267,11.0,22.0,0,-99.99,,,-99.99,,2015-08-01 20:21:00,
2015-08-01 14:44:00,94.0,-99.9,-100.00,West,267,11.0,22.0,0,-99.99,,,-99.99,,2015-08-01 20:44:00,
2015-08-01 14:54:00,94.0,-99.9,-100.00,West,267,11.0,22.0,0,-99.99,,,-99.99,,2015-08-01 20:54:00,
2015-08-01 15:04:00,94.0,-99.9,-100.00,West,267,11.0,22.0,0,-99.99,,,-99.99,,2015-08-01 21:04:00,
2015-08-01 15:13:00,94.0,-99.9,-100.00,West,267,11.0,22.0,0,-99.99,,,-99.99,,2015-08-01 21:13:00,
2015-08-01 15:21:00,95.0,-99.9,-100.00,West,278,13.0,26.0,0,-99.99,,,-99.99,,2015-08-01 21:21:00,
2015-08-01 15:44:00,95.0,-99.9,-100.00,West,278,13.0,26.0,0,-99.99,,,-99.99,,2015-08-01 21:44:00,
2015-08-01 15:54:00,95.0,-99.9,-100.00,West,278,13.0,26.0,0,-99.99,,,-99.99,,2015-08-01 21:54:00,
2015-08-01 16:03:00,95.0,-99.9,-100.00,West,278,13.0,26.0,0,-99.99,,,-99.99,,2015-08-01 22:03:00,
2015-08-01 16:13:00,95.0,-99.9,-100.00,West,278,13.0,26.0,0,-99.99,,,-99.99,,2015-08-01 22:13:00,
2015-08-01 16:21:00,96.0,-99.9,-100.00,West,264,11.0,21.0,0,-99.99,,,-99.99,,2015-08-01 22:21:00,
2015-08-01 16:44:00,96.0,-99.9,-100.00,West,264,11.0,21.0,0,-99.99,,,-99.99,,2015-08-01 22:44:00,
2015-08-01 16:54:00,96.0,-99.9,-100.00,West,264,11.0,21.0,0,-99.99,,,-99.99,,2015-08-01 22:54:00,
2015-08-01 17:05:00,96.0,-99.9,-100.00,West,264,11.0,21.0,0,-99.99,,,-99.99,,2015-08-01 23:05:00,
2015-08-01 17:13:00,96.0,-99.9,-100.00,West,264,11.0,21.0,0,-99.99,,,-99.99,,2015-08-01 23:13:00,
2015-08-01 17:21:00,95.0,-99.9,-100.00,West,262,13.0,23.0,0,-99.99,,,-99.99,,2015-08-01 23:21:00,
2015-08-01 17:44:00,95.0,-99.9,-100.00,West,262,13.0,23.0,0,-99.99,,,-99.99,,2015-08-01 23:44:00,
2015-08-01 17:54:00,95.0,-99.9,-100.00,West,262,13.0,23.0,0,-99.99,,,-99.99,,2015-08-01 23:54:00,
2015-08-01 18:03:00,95.0,-99.9,-100.00,West,262,13.0,23.0,0,-99.99,,,-99.99,,2015-08-02 00:03:00,
2015-08-01 18:13:00,95.0,-99.9,-100.00,West,262,13.0,23.0,0,-99.99,,,-99.99,,2015-08-02 00:13:00,
2015-08-01 18:21:00,94.0,-99.9,-100.00,WNW,294,-999.9,-999.0,0,-99.99,,,-99.99,,2015-08-02 00:21:00,
2015-08-01 18:44:00,94.0,-99.9,-100.00,WNW,294,12.0,22.0,0,-99.99,,,-99.99,,2015-08-02 00:44:00,
2015-08-01 18:53:00,94.0,-99.9,-100.00,WNW,294,12.0,22.0,0,-99.99,,,-99.99,,2015-08-02 00:53:00,
2015-08-01 19:03:00,94.0,-99.9,-100.00,WNW,294,12.0,22.0,0,-99.99,,,-99.99,,2015-08-02 01:03:00,
2015-08-01 19:13:00,94.0,-99.9,-100.00,WNW,294,12.0,22.0,0,-99.99,,,-99.99,,2015-08-02 01:13:00,
2015-08-01 19:44:00,92.0,-99.9,-100.00,NW,315,9.0,17.0,0,-99.99,,,-99.99,,2015-08-02 01:44:00,